Hourly Data Report for September 08, 2017

All times are specified in Local Standard Time (LST). Add 1 hour to adjust for Daylight Saving Time where and when it is observed.

ARVIAT A
NUNAVUT

61°05'38.000" N
94°04'18.000" W
10.40 m
2300427
71174
YEK

Download Data

Hourly Data (September 2017)
Hourly Data Report for September 8, 2017
Temp Definition
°C
Dew Point Temp Definition
°C
Rel Hum Definition
%
Wind Dir Definition
10's deg

Wind Spd Definition
km/h
Visibility Definition
km
Stn Press Definition
kPa
Hmdx Definition


Wind Chill Definition


Weather Definition


TIME
00:00 Legend Double Dagger 10.3 9.1 92 21 28 16.1 100.55     LegendNANA
01:00 Legend Double Dagger 9.8 8.7 93 20 22 16.1 100.52     LegendNANA
02:00 Legend Double Dagger 9.8 8.4 91 20 26 16.1 100.38     LegendNANA
03:00 Legend Double Dagger 9.9 8.4 90 20 30 16.1 100.30     LegendNANA
04:00 Legend Double Dagger 10.1 8.4 89 20 28 16.1 100.21     LegendNANA
05:00 Legend Double Dagger 10.1 8.4 89 20 32 16.1 100.05     LegendNANA
06:00 Legend Double Dagger 10.0 8.6 91 20 30 16.1 99.95     LegendNANA
07:00 Legend Double Dagger 10.2 8.7 90 20 30 16.1 99.86     LegendNANA
08:00 Legend Double Dagger 10.3 9.1 92 21 26 16.1 99.73     LegendNANA
09:00 Legend Double Dagger 12.9 10.5 85 21 28 8.1 99.65     Fog
10:00 Legend Double Dagger 15.4 11.8 79 23 34 4.8 99.58     Haze
11:00 Legend Double Dagger 16.6 12.5 77 23 34 4.8 99.46     Haze
12:00 Legend Double Dagger 18.2 12.9 71 24 43 4.8 99.41     Haze
13:00 Legend Double Dagger 19.6 13.6 68 24 35 6.4 99.37     Haze
14:00 Legend Double Dagger 20.4 13.7 65 25 35 9.7 99.35     Haze
15:00 Legend Double Dagger 21.7 14.0 61 25 39 12.9 99.28 25   LegendNANA
16:00 Legend Double Dagger 22.6 14.3 59 26 45 11.3 99.30 26   LegendNANA
17:00 Legend Double Dagger 22.2 14.3 60 26 41 16.1 99.33 26   LegendNANA
18:00 Legend Double Dagger 21.6 14.6 64 25 34 16.1 99.37 25   LegendNANA
19:00 Legend Double Dagger 20.1 14.3 69 25 30 16.1 99.45     LegendNANA
20:00 Legend Double Dagger 19.1 14.0 72 26 30 16.1 99.51     LegendNANA
21:00 Legend Double Dagger 18.1 13.5 74 27 26 16.1 99.60     LegendNANA
22:00 Legend Double Dagger 16.6 12.8 78 27 21 16.1 99.71     LegendNANA
23:00 Legend Double Dagger 15.2 12.2 82 26 24 14.5 99.78     LegendNANA

Notes on Data Quality.

Legend

  • E = Estimated
  • M = Missing
  • NA = Not Available
  • ‡ = Partner data that is not subject to review by the National Climate Archives
Date modified: